Location: Staunton
(38.1490°N, 79.0720°W)
Time: 23:04:59
(UTC-04:00)

Tiangong - Visible Passes

Search period start: 20 September 2021 00:00
Search period end: 30 September 2021 00:00
Orbit: 380 x 385 km, 41.5° (Epoch: 20 September)

Date Brightness Start Highest point End Pass type
(mag) Time Alt. Az. Time Alt. Az. Time Alt. Az.
24 Sep 2.7 06:30:32 10° SW 06:33:21 30° SSE 06:36:11 10° E visible
25 Sep 3.3 05:32:27 16° SSE 05:33:20 17° SE 05:35:30 10° ESE visible
26 Sep 1.6 06:07:38 19° SW 06:09:41 53° SSE 06:12:46 10° ENE visible
27 Sep 3.1 05:10:32 25° ESE 05:10:32 25° ESE 05:12:26 10° E visible
28 Sep 0.9 05:45:35 58° WSW 05:46:06 87° SSE 05:49:16 10° ENE visible
29 Sep 4.2 04:48:23 15° E 04:48:23 15° E 04:49:04 10° ENE visible
29 Sep 1.6 06:20:34 16° W 06:22:50 49° N 06:25:55 10° ENE visible
